User: anonymous   Login
Location: Theodore Roosevelt National Park
(46.9990°N, 103.4631°W)
Time: 03:18:17
(UTC-06:00)
Language:

Cosmos 2219 Rocket - Orbit

View from above orbital plane
View from above orbital plane
View from above satellite
View from above satellite

Ground track
Ground track

The orbit data is extracted from the following two-line orbital elements,

1 22220U 92076B   16211.51102613  .00000228  00000-0  13878-3 0  9994
2 22220  71.0004  18.4553 0011502  36.9863  22.2524 14.16400989225088
Epoch (UTC): 29 July 2016 12:15:52
Eccentricity: 0.0011502
inclination: 71.0004°
perigee height: 829 km
apogee height: 846 km
right ascension of ascending node: 18.4553°
argument of perigee: 36.9863°
revolutions per day: 14.16400989
mean anomaly at epoch: 22.2524°
orbit number at epoch: 22508

The dashed part of the orbit path shows where the satellite is in the earth's shadow,  

DLR